Domov               UVHVVR             MKGP            O straneh              
ZDRAVSTVENO VARSTVO RASTLIN
  MREŽA AGROMET. POSTAJ
 ► PROGNOSTIČNA OBVESTILA
AGROMETEOROLOŠKI PODATKI -
ARSO
OBVLADOVANJE TVEGANJ ZARADI
NEUGODNIH VREMENSKIH RAZMER
  ► NARAVNE NESREČE
  ► SUŠA/MOČA
  ► NAMAKANJE
  ► ŽLED (gozdarstvo)
KARTOGRAFSKI PRIKAZI
SPLETNE POVEZAVE
PROJEKTI IN PUBLIKACIJE

AGROMETEOROLOŠKA MREŽA: VREMENSKE POSTAJE IN FENOLOŠKA OPAZOVANJA

Pregled podatkov za lokacijo Sremič, meteorološka postaja 49592

Pregled senzorjev na lokaciji

ID Ime Zadnja
vrednost
Datum
zadnje
spremembe
Tip
senzorja
3945 Relativna vlaga 2 m (% RH) 37,78 % RH 17.8.2017 18:30 Generic 0 - 100 %
3946 Temperatura 2 m ( °C) 27,64 °C 17.8.2017 18:30 Generic -40 - +60 °C
3947 Omočenost lista (U) 0 U 17.8.2017 18:30 A730WET
3948 Padavine 0.2 mm (mm) 0 mm 17.8.2017 18:30 Generic 0.2 mm

Pregled podatkov zadnjih 24 ur

Zap.
št.
Datum in čas Sremič
Omočenost
lista
Padavine
0.2
mm
Relativna
vlaga
2
m
Temperatura
2
m
0 17.8.2017 17:30 0 0 37,78 27,64
1 17.8.2017 17:00 0 0 33,72 28,47
2 17.8.2017 16:30 0 0 34,13 28,34
3 17.8.2017 16:00 0 0 33,8 28,48
4 17.8.2017 15:30 0 0 32,68 29,17
5 17.8.2017 15:00 0 0 33,34 29,02
6 17.8.2017 14:30 0 0 33,35 29,44
7 17.8.2017 14:00 0 0 36,22 28,81
8 17.8.2017 13:30 0 0 37,78 29,12
9 17.8.2017 13:00 0 0 41,27 28,76
10 17.8.2017 12:30 0 0 39,84 30,05
11 17.8.2017 12:00 0 0 41,46 29,88
12 17.8.2017 11:30 0 0 44,98 28,94
13 17.8.2017 11:00 0 0 44,69 28,54
14 17.8.2017 10:30 0 0 48,75 26,75
15 17.8.2017 10:00 0 0 47,07 27,74
16 17.8.2017 09:30 0 0 49,05 27,07
17 17.8.2017 09:00 0 0 53,38 25,4
18 17.8.2017 08:30 0 0 54,38 24,44
19 17.8.2017 08:00 0 0 55,54 23,98
20 17.8.2017 07:30 0 0 60,41 22,4
21 17.8.2017 07:00 0 0 67,35 20,3
22 17.8.2017 06:30 0 0 72,65 18,77
23 17.8.2017 06:00 0 0 70,18 18,8
24 17.8.2017 05:30 0 0 69,36 18,68
25 17.8.2017 05:00 0 0 67,37 18,99
26 17.8.2017 04:30 0 0 65,59 19,44
27 17.8.2017 04:00 0 0 65,87 19,52
28 17.8.2017 03:30 0 0 68,21 19,32
29 17.8.2017 03:00 0 0 67,41 19,66
30 17.8.2017 02:30 0 0 67,06 19,73
31 17.8.2017 02:00 0 0 67,04 19,76
32 17.8.2017 01:30 0 0 66,09 19,92
33 17.8.2017 01:00 0 0 65,79 20
34 17.8.2017 00:30 0 0 65,44 20,17
35 17.8.2017 00:00 0 0 64,51 20,52
36 16.8.2017 23:30 0 0 63,49 20,78
37 16.8.2017 23:00 0 0 64,81 20,59
38 16.8.2017 22:30 0 0 66,79 20,57
39 16.8.2017 22:00 0 0 64,88 21,08
40 16.8.2017 21:30 0 0 63,27 21,54
41 16.8.2017 21:00 0 0 61,37 21,95
42 16.8.2017 20:30 0 0 58,88 22,33
43 16.8.2017 20:00 0 0 56,6 22,53
44 16.8.2017 19:30 0 0 53,38 23,13
© 2011 Ministrstvo za kmetijstvo, gozdarstvo in prehrano. Vse pravice pridržane.